Regional Weather Roundup
Issued by NWS

Home | Current Version | Previous Version | Graphics & Text | Print | Product List | Glossary On
Versions: 1 2 3 4 5 6 7 8 9 10 11 12 13 14 15 16 17 18 19 20 21 22 23 24 25 26 27
000
ASUS45 KBOI 251510
RWRID

IDAHO REGIONAL WEATHER ROUNDUP
NATIONAL WEATHER SERVICE BOISE ID
900 AM MDT THU AUG 25 2016

NOTE: "FAIR" INDICATES FEW OR NO CLOUDS BELOW 12000 FEET
WITH NO SIGNIFICANT WEATHER AND/OR OBSTRUCTIONS TO VISIBILITY

IDZ012-014-251600-
SOUTHWEST IDAHO


CITY           SKY/WX    TMP DP  RH WIND       PRES   REMARKS
BOISE          SUNNY     66  34  30 SE12      30.13R
CALDWELL       SUNNY     63  38  39 E5        30.13R
MOUNTAIN HOME  SUNNY     61  34  35 SE13      30.14R
$$

IDZ016-017-251600-
SOUTHCENTRAL IDAHO


CITY           SKY/WX    TMP DP  RH WIND       PRES   REMARKS
JEROME         SUNNY     55  38  52 E13       30.18R
TWIN FALLS     SUNNY     58  36  43 E16G26    30.18R
$$

IDZ019>023-251600-
SOUTHEAST IDAHO


CITY           SKY/WX    TMP DP  RH WIND       PRES   REMARKS
IDAHO FALLS    MOSUNNY   52  37  56 N10       30.24R
POCATELLO      SUNNY     55  37  50 VRB7      30.21S
REXBURG        SUNNY     50  37  61 NE9       30.24S
$$

IDZ006-010-011-018-031-032-251600-
CENTRAL IDAHO MOUNTAINS


CITY           SKY/WX    TMP DP  RH WIND       PRES   REMARKS
MCCALL         SUNNY     53  36  52 CALM      30.23R
STANLEY          N/A     42  29  59 NE3       30.32S
SALMON         SUNNY     48  36  61 CALM      30.28S
CHALLIS        MOSUNNY   52  32  46 CALM      30.28R
$$

IDZ002-004-006-007-026-251600-
NORTHERN IDAHO


CITY           SKY/WX    TMP DP  RH WIND       PRES   REMARKS
LEWISTON       SUNNY     63  41  44 CALM      30.15S
LOWELL           N/A     50  44  80 CALM      30.21F
COEUR D`ALENE  SUNNY     59  43  55 NE12      30.20R
MULLAN PASS    SUNNY     49  32  52 SE7       30.31R
$$




USA.gov is the U.S. government's official web portal to all federal, state and local government web resources and services.